Other Public Products
Issued by NWS Grand Forks, ND

Home | Current Version | Previous Version | Text Only | Print | Product List | Glossary On
Versions: 1 2 3 4 5 6 7 8 9 10 11 12 13 14 15 16 17 18 19 20 21 22 23 24 25 26 27 28 29 30 31 32 33 34 35 36 37 38 39 40 41 42 43 44 45 46 47 48 49 50
000
FPUS83 KFGF 200031
OPUFGF
PRAIRIE TO PINES WEATHER ROUNDUP
NATIONAL WEATHER SERVICE EASTERN NORTH DAKOTA/GRAND FORKS ND
600 PM CST FRI DEC 19 2014

 **SATELLITE DATA USED TO AUGMENT SKY COVER AT AUTOMATED STATIONS**
 *****  WEATHER ACROSS EASTERN NORTH DAKOTA  *****

CITY           SKY/WX    TMP DP  RH WIND       PRES   REMARKS
GRAND FORKS    CLOUDY    29  28  96 S7        30.02S FOG     WCI  22
6HR MIN TEMP:  26; 6HR MAX TEMP:  29;

GRAND FORKS AF CLOUDY    28  28 100 S3        30.01F FOG
GRAND CITY NWS   N/A     28 N/A N/A S5          N/A  WCI  23
BUXTON           N/A     29  29  98 SE10        N/A  WCI  20
DEVILS LAKE    CLOUDY    27  19  74 SW3       29.96S
6HR MIN TEMP:  27; 6HR MAX TEMP:  28;

FARGO          CLOUDY    32  28  85 S13       30.03S FOG     WCI  22
6HR MIN TEMP:  29; 6HR MAX TEMP:  32; 6HR PCP: TRACE;

WAHPETON ARPT  CLOUDY    32  28  86 S10       30.05S WCI  24
$$

 *****  WEATHER ACROSS CENTRAL AND WESTERN NORTH DAKOTA  *****

CITY           SKY/WX    TMP DP  RH WIND       PRES   REMARKS
JAMESTOWN      PTCLDY    24  23  96 S6        29.96S FOG     WCI  17
6HR MIN TEMP:  26; 6HR MAX TEMP:  32;

BISMARCK       CLEAR     26  23  88 E5        29.95R WCI  20
6HR MIN TEMP:  26; 6HR MAX TEMP:  39;

MINOT          CLOUDY    26  24  92 CALM      29.94S FOG
6HR MIN TEMP:  26; 6HR MAX TEMP:  28; 6HR PCP: TRACE;

MINOT AFB      CLOUDY    25  25 100 CALM      29.94S FOG
6HR MIN TEMP:  26; 6HR MAX TEMP:  27;

GARRISON         N/A     28  26  92 SE3       29.93S
6HR MIN TEMP:  25; 6HR MAX TEMP:  28;

WILLISTON      FOG       23  21  92 N5        29.91S VSB 1/4 WCI  17
6HR MIN TEMP:  22; 6HR MAX TEMP:  27;

DICKINSON      CLEAR     31  23  72 CALM      29.88R
6HR MIN TEMP:  30; 6HR MAX TEMP:  44;

HETTINGER      CLEAR     28  23  81 CALM      29.91S
6HR MIN TEMP:  28; 6HR MAX TEMP:  44;

$$

 *****  OTHER OBSERVATIONS NORTHEAST NORTH DAKOTA  *****

CITY           SKY/WX    TMP DP  RH WIND       PRES   REMARKS
WALHALLA         N/A     27  27 100 SE3       30.02S FOG
LANGDON        CLOUDY    27  25  93 S3        29.97S FOG
CAVALIER       CLOUDY    27  27 100 CALM      30.02F FOG
GRAFTON        NOT AVBL
CANDO          CLOUDY    27  25  93 E3        29.97F FOG
FORT TOTTEN    NOT AVBL
ROLLA          CLOUDY    25  25 100 SW3       29.95S
RUGBY          CLOUDY    25  25 100 CALM      29.96S
 ***** THE ABOVE OBSERVATIONS ARE NON NWS ARE NOT QUALITY
        CONTROLLED AND MAY MIS-REPORT RAIN FOR SNOW...
$$

 *****  OTHER OBSERVATIONS SOUTHEAST NORTH DAKOTA *****

CITY           SKY/WX    TMP DP  RH WIND       PRES   REMARKS
COOPERSTOWN    NOT AVBL
VALLEY CITY    CLOUDY    28  28 100 S6        29.98S WCI  22
OAKES            N/A     28  28 100 S15       29.99F FOG     WCI  17
GWINNER        CLOUDY    32  32 100 MISG      30.01F
SHEYENNE NWR     N/A     31  28  90 S5        29.95S
BUFFALO        NOT AVBL
WYNDMERE         N/A     30  28  93 S7          N/A  WCI  23
 ***** THE ABOVE OBSERVATIONS ARE NON NWS ARE NOT QUALITY
       CONTROLLED AND MAY MIS-REPORT RAIN FOR SNOW...
$$

  *****  WEATHER ACROSS NORTHERN MINNESOTA  *****

CITY           SKY/WX    TMP DP  RH WIND       PRES   REMARKS
FLAG ISLAND    CLOUDY    25  21  86 S16       30.07S FOG     WCI  12
WARROAD        CLOUDY    25  21  86 SE8       30.07S FOG     WCI  16
ROSEAU         CLOUDY    27  21  80 SE8       30.06S FOG     WCI  18
HALLOCK        CLOUDY    28  27  93 SE6       30.03F FOG     WCI  22
THF RVR FALLS  CLOUDY    27  27 100 SE9       30.03F WCI  17
6HR MIN TEMP:  25; 6HR MAX TEMP:  27;

HALSTAD          N/A     30  28  93 S12         N/A  WCI  21
FOSSTON        CLOUDY    25  23  93 S7        30.05S FOG     WCI  17
BAUDETTE       CLOUDY    24  22  91 S7        30.07S WCI  16
6HR MIN TEMP:  23; 6HR MAX TEMP:  25;

WASKISH        CLOUDY    25  23  93 SE3       30.08S FOG
CROOKSTON      MOCLDY    28  28 100 S10       30.04F WCI  19
$$
  *****  WEATHER ACROSS CENTRAL AND WEST MINNESOTA  *****

CITY           SKY/WX    TMP DP  RH WIND       PRES   REMARKS
BEMIDJI        CLOUDY    24  23  98 SE10      30.05S FOG     WCI  13
PARK RAPIDS    LGT SNOW  26  23  88 SE15      30.05F FOG     WCI  14
6HR MIN TEMP:  23; 6HR MAX TEMP:  25; 6HR PCP: TRACE;

WADENA         LGT SNOW  27  27 100 SE7       30.05F WCI  19
DETROIT LAKES  MIX PCPN  30  28  93 S12       30.04S WCI  21
MOORHEAD       CLOUDY    30  30 100 S13       30.04S FOG     WCI  20
FERGUS FALLS   CLOUDY    28  28 100 S15       30.08F FOG     WCI  17
ELBOW LAKE     CLOUDY    29  28  97 S14       30.06S FOG     WCI  18
6HR MIN TEMP:  27; 6HR MAX TEMP:  29;

MORRIS MN      CLOUDY    30  28  93 S15       30.06F FOG     WCI  19
STAPLES        CLOUDY    25  25 100 SE6       30.10S FOG     WCI  18
WHEATON        CLOUDY    28  27  93 SE8       30.07F WCI  20
$$
  *****  WEATHER ELSEWHERE ACROSS MINNESOTA  *****

CITY           SKY/WX    TMP DP  RH WIND       PRES   REMARKS
DULUTH         FLURRIES  25  19  80 SE8       30.16S WCI  16
6HR MIN TEMP:  23; 6HR MAX TEMP:  25; 6HR PCP: TRACE;

INTRNTL FALLS  CLOUDY    24  20  84 SE9       30.11S WCI  14
6HR MIN TEMP:  23; 6HR MAX TEMP:  24; 6HR PCP:  0.01;

ELY            CLOUDY    23  19  86 S7        30.15S WCI  15
CLOQUET        CLOUDY    25  21  86 SE5       30.17R WCI  19
BRAINERD       CLOUDY    25  24  96 SE8       30.12F FOG     WCI  16
6HR MIN TEMP:  22; 6HR MAX TEMP:  25;

HIBBING        CLOUDY    24  20  84 SE7       30.14S WCI  16
6HR MIN TEMP:  23; 6HR MAX TEMP:  25; 6HR PCP: TRACE;

ALEXANDRIA     CLOUDY    29  27  92 S17       30.08F FOG     WCI  17
6HR MIN TEMP:  27; 6HR MAX TEMP:  29;

SAINT CLOUD    CLOUDY    30  25  81 SE12      30.15S HAZE    WCI  20
6HR MIN TEMP:  25; 6HR MAX TEMP:  30;

MINNEAPOLIS    CLOUDY    29  24  82 SE10      30.20S WCI  20
6HR MIN TEMP:  26; 6HR MAX TEMP:  30;

$$

  *****  WEATHER ACROSS SOUTH DAKOTA  *****

CITY           SKY/WX    TMP DP  RH WIND       PRES   REMARKS
SIOUX FALLS    CLOUDY    31  28  89 S12       30.09S WCI  22
6HR MIN TEMP:  30; 6HR MAX TEMP:  31;

BROOKINGS      NOT AVBL
WATERTOWN      CLOUDY    28  27  96 S13       30.01F FOG     WCI  17
6HR MIN TEMP:  27; 6HR MAX TEMP:  29;

HURON          CLOUDY    30  28  92 S10       30.04S WCI  21
6HR MIN TEMP:  29; 6HR MAX TEMP:  30;

SISSETON         N/A     30  28  92 S9        30.03S WCI  22
ABERDEEN       CLOUDY    30  26  85 S10       30.02S WCI  21
6HR MIN TEMP:  30; 6HR MAX TEMP:  31;

MITCHELL       CLOUDY    30  29  96 S13       30.06S WCI  20
PIERRE         PTCLDY    21  21 100 E3        29.97S
6HR MIN TEMP:  21; 6HR MAX TEMP:  30;

MOBRIDGE       CLEAR     27  23  85 SE6       29.93R WCI  20
RAPID CITY     CLEAR     33  24  69 CALM      29.93S
6HR MIN TEMP:  32; 6HR MAX TEMP:  52;

$$

  *****  SOME WEATHER IN NEARBY STATES *****

CITY           SKY/WX    TMP DP  RH WIND       PRES   REMARKS
GLASGOW MT     CLEAR     28  23  81 E9        29.86R WCI  19
6HR MIN TEMP:  28; 6HR MAX TEMP:  39;

GREAT FALLS MT CLOUDY    43  28  55 SW18      29.78S
6HR MIN TEMP:  39; 6HR MAX TEMP:  48;

CHEYENNE WY    PTCLDY    34  13  41 W16G28    30.00S WCI  24
6HR MIN TEMP:  34; 6HR MAX TEMP:  40;

SCOTTSBLUFF NE CLEAR     31  22  69 W8        29.99R WCI  23
6HR MIN TEMP:  23; 6HR MAX TEMP:  39;

OMAHA NE       CLOUDY    32  29  88 SE10      30.17S FOG     WCI  24
6HR MIN TEMP:  32; 6HR MAX TEMP:  34; 6HR PCP: TRACE;

DES MOINES IA  CLOUDY    33  28  81 SE8       30.20F
6HR MIN TEMP:  32; 6HR MAX TEMP:  33;

DAVENPORT IA   CLOUDY    26  21  81 E7        30.27F WCI  18
6HR MIN TEMP:  26; 6HR MAX TEMP:  31;

CHICAGO IL     CLOUDY    31  22  69 N7        30.28F WCI  24
6HR MIN TEMP:  30; 6HR MAX TEMP:  32;

EAU CLAIRE WI  CLOUDY    28  19  69 S9        30.25R WCI  19
6HR MIN TEMP:  26; 6HR MAX TEMP:  28;

LA CROSSE WI   CLOUDY    30  21  69 S7        30.27F WCI  23
6HR MIN TEMP:  30; 6HR MAX TEMP:  31;

$$

  *****  SOME NATIONAL WEATHER *****

CITY           SKY/WX    TMP DP  RH WIND       PRES   REMARKS



USA.gov is the U.S. government's official web portal to all federal, state and local government web resources and services.